Flag for Turkey Weather past 2 weeks in Istanbul, Turkey

Now
81 °F

Broken clouds.


Feels Like: 84 °F
Forecast: 75 / 86 °F
Wind: 8 mph from North

Location: Istanbul Ataturk Airport

Current Time: Aug 2, 2014 at 9:22:35 AM

Latest Report: Aug 2, 2014 at 8:50 AM


Visibility: N/A

Pressure: 29.68 "Hg

Humidity: 70%

Dew point: 70 °F

Location of IstanbulLocation

Historic Weather in Istanbul — Graph

°F

Istanbul temperature yesterday

Maximum temperature yesterday: 88 °F (at 10:20 AM)
Minimum temperature yesterday: 77 °F (at 1:50 AM)
Average temperature yesterday: 82 °F

Past Weeks' High & Low Weather Summary

 TemperatureHumidityPressure
High91 °F (Jul 28, 3:50 PM)89% (Jul 19, 11:50 AM)29.92 "Hg (Jul 19, 11:50 AM)
Low70 °F (Jul 19, 9:50 AM)31% (Jul 31, 4:50 PM)29.62 "Hg (Aug 1, 3:50 PM)
Average80 °F67%29.81 "Hg
* Reported Jul 18 7:20 AM — Aug 2 7:50 AM, Istanbul, Weather by CustomWeather, © 2014

Note: Actual official high and low records may vary slightly from our data, if they occured in-between our weather recording intervals... More about our weather records

Advertising

Istanbul weather history for previous 24 hours

 ConditionsComfort  
Time TempWeatherWind HumidityBarometerVisibility
7:50 AM
Aug 2
79 °FScattered clouds.7 mph79%29.68 "HgN/A
7:20 AM79 °FScattered clouds.7 mph79%29.68 "HgN/A
6:50 AM79 °FPassing clouds.7 mph79%29.68 "HgN/A
6:20 AM79 °FPassing clouds.7 mph79%29.65 "HgN/A
5:50 AM79 °FPassing clouds.10 mph79%29.65 "HgN/A
5:20 AM79 °FPassing clouds.8 mph79%29.65 "HgN/A
4:50 AM79 °FPassing clouds.9 mph79%29.65 "HgN/A
4:20 AM79 °FPassing clouds.9 mph79%29.65 "HgN/A
3:50 AM79 °FPassing clouds.8 mph79%29.65 "HgN/A
3:20 AM79 °FPassing clouds.8 mph79%29.68 "HgN/A
2:50 AM79 °FPassing clouds.8 mph79%29.65 "HgN/A
2:20 AM79 °FPassing clouds.7 mph79%29.65 "HgN/A
1:50 AM81 °FPassing clouds.8 mph74%29.65 "HgN/A
1:20 AM81 °FPassing clouds.8 mph74%29.65 "HgN/A
12:50 AM81 °FPassing clouds.9 mph74%29.68 "HgN/A
12:20 AM79 °FPassing clouds.9 mph79%29.68 "HgN/A
11:50 PM
Aug 1
79 °FPassing clouds.9 mph79%29.68 "HgN/A
11:20 PM79 °FPassing clouds.8 mph79%29.68 "HgN/A
10:50 PM81 °FPassing clouds.9 mph74%29.68 "HgN/A
10:20 PM81 °FPassing clouds.13 mph74%29.68 "HgN/A
9:50 PM81 °FPassing clouds.10 mph74%29.68 "HgN/A
9:20 PM81 °FScattered clouds.14 mph70%29.65 "HgN/A
8:50 PM81 °FScattered clouds.15 mph70%29.65 "HgN/A
8:20 PM82 °FScattered clouds.16 mph70%29.65 "HgN/A
7:50 PM82 °FScattered clouds.16 mph62%29.65 "HgN/A
7:20 PM82 °FScattered clouds.20 mph66%29.65 "HgN/A
6:50 PM82 °FScattered clouds.18 mph62%29.65 "HgN/A
6:20 PM82 °FScattered clouds.20 mph58%29.65 "HgN/A
5:50 PM84 °FPassing clouds.20 mph55%29.65 "HgN/A
5:20 PM86 °FSunny.18 mph52%29.65 "Hg10 mi
4:50 PM86 °FPassing clouds.17 mph52%29.65 "HgN/A
4:20 PM88 °FPassing clouds.14 mph43%29.65 "HgN/A
3:50 PM88 °FSunny.15 mph40%29.62 "Hg10 mi
3:20 PM88 °FPassing clouds.16 mph49%29.65 "HgN/A
2:50 PM88 °FSunny.16 mph43%29.65 "Hg10 mi
2:20 PM88 °FPassing clouds.14 mph46%29.65 "HgN/A
1:50 PM88 °FPassing clouds.15 mph49%29.65 "HgN/A
1:20 PM88 °FPassing clouds.15 mph49%29.65 "HgN/A
12:50 PM88 °FSunny.14 mph49%29.65 "Hg10 mi
12:20 PM88 °FPassing clouds.15 mph49%29.65 "HgN/A
11:50 AM88 °FPassing clouds.13 mph49%29.65 "HgN/A
11:20 AM86 °FPassing clouds.14 mph49%29.65 "HgN/A
10:50 AM86 °FPassing clouds.14 mph49%29.65 "HgN/A
10:20 AM88 °FPassing clouds.13 mph49%29.65 "HgN/A
9:50 AM84 °FPassing clouds.13 mph55%29.65 "HgN/A
9:20 AM84 °FPassing clouds.9 mph51%29.68 "HgN/A
Weather by CustomWeather, © 2014

See weather overviewHow to use our weather pages